www.pogodaiklimat.ru

АРХИВ ПОГОДЫ в Одессе

Время (UTC), дата Ветер
(напр.,м/с)
 
Видим.   Явления Облачность Т
(С)
Тd
(С)
f
(%)
Тe
(С)
Тes
(С)
Комфортность P
(гПа)
Po
(гПа)
Тmin
(С)
Tmax
(С)
R
(мм)
S
(см)
15 11.01 ЮЗ 3 16 км 10/8 400 м
[Sc diur, vesp Ac trans]
+0.7 -1.3 86 -4 -4 по сезону 1015.0 1009.7
18 11.01 ЮЗ 3 13 км 10/8 450 м
[Sc diur, vesp Ac und]
-1.2 -3.5 84 -6 -6 по сезону 1014.7 1009.4 +3.1 8
21 11.01 ЮЗ 4 7000 м дымка 10/0
[Ac trans Ci fib]
-4.2 -6.1 87 -11 -11 холодно 1014.5 1009.3
00 12.01 ЮЗ 2 10 км 10/0
[As op]
-5.2 -7.3 85 -9 -9 прохладно 1014.9 1009.5
03 12.01 З 2 10 км 10/0
[Ac und]
-4.5 -6.8 84 -9 -9 прохладно 1011.7 1006.3
06 12.01 З 3 21 км 10/0
[Ac und]
-4.7 -8.3 76 -10 -10 прохладно 1010.1 1004.7 -5.7 11
09 12.01 З 3 20 км 8/0
[Ac trans Ci fib]
-5.2 -8.9 75 -11 -9 холодно 1010.4 1005.0
12 12.01 З 2 16 км 4/0
[Ac trans Ci fib]
-3.2 -8.7 66 -7 -5 прохладно 1009.9 1004.5
15 12.01 З 1 11 км 8/0
[Ac und]
-5.8 -9.7 74 -8 -8 прохладно 1011.2 1005.8
18 12.01 З 2 8000 м дымка 3/0
[Ci fib]
-7.2 -8.9 88 -12 -12 очень
холодно
1012.6 1007.1 -3.0
21 12.01 З 3 10 км 8/3 1500 м
[Sc Ac und Ci fib]
-7.1 -10.5 77 -13 -13 очень
холодно
1013.7 1008.2
00 13.01 З 3 11 км 8/3 1170 м
[Sc Ac und Ci fib]
-5.7 -10.0 72 -11 -11 холодно 1014.4 1009.0
03 13.01 З 4 11 км 8/6 1350 м
[Sc Ac und]
-4.4 -8.3 74 -11 -11 холодно 1014.7 1009.3
06 13.01 З 3 14 км 3/0
[Ac trans]
-5.4 -9.2 75 -11 -11 холодно 1015.7 1010.3 -7.9 9
09 13.01 Ю 1 10 км 3/0
[Ci fib]
-0.1 -7.8 56 -2 +2 по сезону 1016.2 1010.9
12 13.01 Ю 3 16 км 10/0
[Ac trans Cc]
+0.5 -3.9 72 -4 -3 по сезону 1014.2 1008.9
15 13.01 Ю 3 16 км 10/0
[Ac und]
+2.1 -0.4 84 -2 -2 по сезону 1013.7 1008.4
18 13.01 Ю 5 18 км 10/0
[Ci sp]
+2.6 +0.2 84 -3 -3 по сезону 1011.5 1006.3 +2.6
21 13.01 Ю 7 9000 м дымка 8/3 600 м
[Sc diur, vesp Ci fib]
+2.9 +1.3 89 -3 -3 по сезону 1009.3 1004.1
00 14.01 Ю 7 9000 м дымка 10/10 720 м
[Sc]
+3.3 +1.5 88 -3 -3 по сезону 1007.9 1002.7
03 14.01 Ю 7 8000 м дымка 10/10 960 м
[Sc]
+3.3 +1.5 88 -3 -3 по сезону 1005.8 1000.6
06 14.01 Ю 8 9000 м дымка 10/10 960 м
[Sc]
+4.1 +2.3 88 -2 -2 по сезону 1004.2 999.0 +2.5 7
09 14.01 Ю 4 11 км 10/10 900 м
[Cb calv]
+4.6 +2.4 86 0 0 по сезону 1003.4 998.2
12 14.01 Ю 4 11 км 10/10 720 м
[Sc]
+4.8 +2.8 87 +1 +1 по сезону 1002.6 997.4
15 14.01 ЮЗ 3 9000 м дымка 8/3 300 м
[St Ac trans]
+4.0 +3.0 93 0 0 по сезону 1002.6 997.6
18 14.01 ЮЗ 2 14 км 8/0
[Ac trans]
+4.7 +1.7 81 +2 +2 тепло 1004.3 999.1 +4.9
21 14.01 З 1 10 км 10/0
[Ac trans]
+2.0 -0.8 82 0 0 по сезону 1006.5 1001.3
00 15.01 З 2 7000 м дымка 10/0
[Ac trans]
+1.9 -0.3 85 -1 -1 по сезону 1008.5 1003.3
03 15.01 СЗ 2 19 км 9/0
[Ac trans]
+2.7 -0.6 79 -0 -0 тепло 1010.4 1005.2
06 15.01 СЗ 4 16 км 10/6 1440 м
[Sc Ac trans]
+1.3 -1.9 79 -4 -4 по сезону 1013.3 1008.0 +1.2 <0.5
09 15.01 С 2 23 км 3/0
[Ci fib]
+3.1 -2.3 68 0 +3 по сезону 1015.5 1010.2
12 15.01 С 2 20 км 9/0
[Ci]
+4.3 -1.8 64 +2 +4 тепло 1016.2 1011.0
15 15.01 СЗ 2 21 км 4/1 600 м
[Sc diur, vesp Ci fib]
+2.5 -2.1 72 -0 -0 по сезону 1018.5 1013.2
18 15.01 СЗ 2 35 км ясно +1.5 -2.6 74 -2 -2 по сезону 1020.1 1014.8 +4.4
21 15.01 С 2 26 км ясно 0.0 -3.7 76 -3 -3 по сезону 1021.6 1016.2
00 16.01 С 2 24 км ясно -0.6 -4.0 78 -4 -4 по сезону 1022.8 1017.4
03 16.01 С 2 16 км ясно -1.7 -4.1 84 -6 -6 по сезону 1023.2 1017.8
06 16.01 С 2 7000 м дымка ясно -2.5 -3.4 94 -7 -7 по сезону 1023.3 1017.9 -3.0 <0.5
09 16.01 С 2 14 км 3/0
[Ci fib]
-0.1 -2.5 84 -4 -1 по сезону 1024.4 1019.0
12 16.01 СВ 3 12 км 6/0
[Ci]
+0.1 -2.3 84 -5 -3 по сезону 1023.8 1018.4
15 16.01 СВ 5 12 км 10/0
[Ac trans Ci]
+0.3 -1.7 86 -6 -6 по сезону 1024.3 1018.9
18 16.01 СВ 7 30 км 10/0
[Ci]
-0.6 -4.0 78 -8 -8 прохладно 1024.8 1019.4 +0.6
21 16.01 В 7 20 км 10/0
[Ac trans Ci sp]
-0.9 -4.4 77 -8 -8 прохладно 1025.8 1020.4
00 17.01 СВ 7 12 км 10/0
[Ac trans Ci sp]
-2.0 -4.8 81 -10 -10 прохладно 1026.3 1020.9
03 17.01 СВ 6 12 км 10/0
[Ci sp]
-3.1 -5.9 81 -10 -10 прохладно 1026.6 1021.2
06 17.01 СВ 9 18 км 10/0
[Ac trans Ci]
-2.3 -6.3 74 -11 -11 холодно 1028.4 1023.0 -3.1 <0.5
09 17.01 СВ 9 20 км 8/3 600 м
[Sc Ac trans]
-2.3 -5.5 79 -11 -11 холодно 1029.4 1024.0
12 17.01 СВ 10 29 км 10/3 600 м
[Sc Ac trans Ci fib]
-0.6 -4.4 75 -9 -9 холодно 1028.6 1023.2
15 17.01 СВ 10 35 км 8/3 600 м
[Sc Ac trans Ci fib]
-1.2 -5.2 74 -10 -10 холодно 1030.2 1024.8
18 17.01 СВ 8 26 км 4/0
[Ac trans]
-3.0 -6.1 79 -11 -11 холодно 1031.2 1025.7 -0.4
21 17.01 СВ 9 20 км 3/0
[Ac trans]
-3.1 -6.2 79 -12 -12 холодно 1031.6 1026.1
00 18.01 СВ 9 12 км 6/6 360 м
[St]
-4.4 -6.7 84 -13 -13 очень
холодно
1032.0 1026.5
03 18.01 СВ 11 10 км 10/6 330 м
[St Ac trans]
-5.7 -7.1 90 -16 -16 очень
холодно
1032.5 1027.0
06 18.01 СВ 10 12 км 10/10 210 м
[St]
-4.9 -6.2 91 -15 -15 очень
холодно
1033.7 1028.2 -5.8 <0.5
09 18.01 СВ 6 17 км 8/8 240 м
[St]
-3.7 -6.2 83 -11 -11 холодно 1034.0 1028.5
12 18.01 СВ 8 24 км 8/8 360 м
[Sc]
-2.9 -6.3 77 -11 -11 очень
холодно
1033.8 1028.3

 

Местоположение метеостанции Одесса (Одесская область, Украина): широта 46.43 долгота 30.77 высота над уровнем моря 42 м.

В архиве по умолчанию представлена погода в Одессе за последнюю неделю. Архивные данные за месяц целиком и за предыдущие месяцы, начиная с января 2011 года, Вы можете получить, выбрав интересующий диапазон дат из раскрывающегося списка и нажав кнопку "Ввод!".

Внимание! Время в таблицах - всемирное. Для получения местного времени необходимо прибавить поправку, которая в Одессе равна 2 ч.

Ветер - указаны скорость ветра в м/с - средняя за 10 мин, порывы в срок и между сроками (в фигурных скобках) и направление, откуда дует ветер: С - северный, СВ - северо-восточный, В - восточный, ЮВ - юго-восточный, Ю - южный, ЮЗ - юго-западный, З - западный, СЗ - северо-западный.
Видимость - горизонтальная дальность видимости в метрах или километрах. При видимости от 1 до 10 км при отсутствии осадков обычно наблюдается дымка, при ухудшении видимости до 1 км и менее - туман. В сухую погоду видимость может ухудшаться дымом, пылью или мглою.
Явления - указаны атмосферные явления, наблюдавшиеся в срок или в последний час перед сроком; фигурными скобками обозначены явления, наблюдавшиеся между сроками (за 1-3 часа до срока); квадратными скобками обозначены град или гололедные отложения с указанием их диаметра в мм.
Облачность - указаны через наклонную черту общая и нижняя облачность в баллах и высота нижней границы облаков в метрах; квадратными скобками обозначены формы облаков: Ci - перистые, Cs - перисто-слоистые, Cc - перисто-кучевые, Ac - высококучевые, As - высокослоистые, Sc - слоисто-кучевые, Ns - слоисто-дождевые, Cu - кучевые, Cb - кучево-дождевые. Подробнее классификацию облаков см. в Атласе облаков (PDF).
T - Температура воздуха - температура, измеренная на высоте 2 м над землей.
Td - Температура точки росы - температура, при понижении до которой содержащийся в воздухе водяной пар достигнет насыщения.
f - Относительная влажность воздуха - влажноcть воздуха, измеренная на высоте 2 м над землей.
Te - Эффективная температура - температура, которую ощущает одетый по сезону человек в тени. Характеристика душности погоды. При расчете учитывается влияние влажности воздуха и скорости ветра на теплоощущения человека.
Tes - Эффективная температура на солнце - температура, которую ощущает человек, с поправкой на солнечный нагрев. Характеристика знойности погоды. Зависит от высоты солнца над горизонтом, облачности и скорости ветра. Ночью, в пасмурную погоду, а также при ветре 12 м/с и более поправка равна нулю.
P - Атмосферное давление - приведенное к уровню моря атмосферное давление.
Po - Атмосферное давление - измеренное на уровне метеостанции атмосферное давление.
Tmin - Минимальная температура - минимум температуры воздуха на высоте 2 м над землей.
Tmax - Максимальная температура - максимум температуры воздуха на высоте 2 м над землей.
R - Количество осадков - Количество выпавших осадков, мм. При наведении курсора мыши на число - период времени, за который выпало указанное количество осадков.
S - Снежный покров - Высота снежного покрова, см. При наведении курсора мыши на число - состояние снежного покрова и степень покрытия местности в баллах.